Simultaneous Nadir Overpasses (SNOs) Predictions

Prediction of SNOs between LANDSAT-8 and NPP Satellite Orbit:

Table of predicted SNOs for the next 14.0 days since TLE Epoch: 3/23/2017
Index Date (LANDSAT-8) Time (LANDSAT-8) Lat,Lon (LANDSAT-8) SZA (LANDSAT-8 ) Date (NPP) Time (NPP) Lat,Lon (NPP) SZA (NPP ) Distance(km) Time Diff (sec)
1 03/24/2017 14:41:31 -70.21, 136.06 111.47 03/24/2017 14:40:33 -70.19, 136.01 111.48 2.71 58
2 03/24/2017 15:30:59 70.05, -56.51 68.37 03/24/2017 15:31:17 70.08, -56.52 68.40 3.62 18
3 03/24/2017 16:20:39 -69.39, 110.21 112.28 03/24/2017 16:21:48 -69.41, 111.80 112.32 62.41 69
4 03/27/2017 06:57:59 -70.15,-108.13 112.58 03/27/2017 06:57:25 -70.14,-108.13 112.59 1.42 34
5 03/27/2017 07:47:26 70.05, 59.36 67.31 03/27/2017 07:48:09 70.04, 59.33 67.30 1.67 43
6 03/29/2017 22:24:52 70.43,-159.49 66.65 03/29/2017 22:23:40 70.52,-160.26 66.77 30.12 72
7 03/29/2017 23:14:26 -70.10, 7.67 113.69 03/29/2017 23:14:16 -70.09, 7.72 113.69 2.02 10
8 03/30/2017 00:03:53 69.99, 175.16 66.20 03/30/2017 00:05:00 70.00, 175.18 66.20 1.36 67
9 04/01/2017 14:41:23 70.19, -43.95 65.38 04/01/2017 14:40:27 70.21, -44.00 65.41 2.84 56
10 04/01/2017 15:30:53 -70.09, 123.53 114.74 04/01/2017 15:31:09 -70.10, 123.49 114.72 2.63 16
11 04/01/2017 16:20:32 69.31, -69.88 64.51 04/01/2017 16:21:40 69.32, -68.05 64.46 72.02 68
12 04/04/2017 06:57:50 70.17, 71.91 64.33 04/04/2017 06:57:19 70.17, 71.84 64.34 2.41 31
13 04/04/2017 07:47:20 -70.07,-120.61
